Location: *
(43.7000°S, 168.7000°W)
Time: 15:01:57
(UTC+00:00)

Helios 1A Rocket - Pass Details

Date: 07 July 2020
Orbit: 563 x 587 km, 98.3° (Epoch: 03 August)

Event Time Altitude Azimuth Distance (km) Brightness Sun altitude
Rises 17:55:06 0° 343° (NNW) 2,758 6.5 -9.3°
Reaches altitude 10° 17:57:34 10° 328° (NNW) 1,874 5.4 -8.9°
Maximum altitude 18:00:49 23° 275° (W) 1,251 4.1 -8.4°
Drops below altitude 10° 18:04:08 10° 221° (SW) 1,907 5.0 -7.8°
Enters shadow 18:05:18 - 213° (SSW) 2,309 5.5 -7.6°
